Wendover, UT

7:35 PM MDT on September 27, 2016 (GMT -0600)
Wendover

Weather History for KENV - February, 2014

Change the Weather History Date:

Tuesday, February 18, 2014

  Actual Average Record
Temperature  
Mean Temperature 40 °F -  
Max Temperature 48 °F 45 °F 66 °F (1986)
Min Temperature 30 °F 27 °F 8 °F (1942)
Degree Days  
Heating Degree Days 25    
Moisture  
Dew Point 18 °F    
Average Humidity 40    
Maximum Humidity 69    
Minimum Humidity 20    
Precipitation  
Precipitation 0.00 in - - ()
Sea Level Pressure  
Sea Level Pressure 30.05 in    
Wind  
Wind Speed 8 mph (South)    
Max Wind Speed 22 mph    
Max Gust Speed 26 mph    
Visibility 10 miles    
Events      
Averages and records for this station are not official NWS values.
T = Trace of Precipitation, MM = Missing Value Source: NWS Daily Summary

Daily Weather History Graph

Daily Weather History Graph

Search for Another Location

Airport or City:

Trip Planner

Search our weather history database for the weather conditions in past years. The results will help you decide how hot, cold, wet, or windy it might be!

Date:

Astronomy

Feb. 18, 2014 Rise Set
Actual Time 7:25 AM MST 6:14 PM MST
Civil Twilight 6:58 AM MST 6:42 PM MST
Nautical Twilight 6:26 AM MST 7:14 PM MST
Astronomical Twilight 5:54 AM MST 7:46 PM MST
Moon 10:13 PM MST (2/18) 8:58 AM MST (2/18)
Length of Visible Light 11h 44m
Length of Day
10h 48m
Waning Gibbous, 87% of the Moon is Illuminated
Feb 18
Waning Gibbous
Feb 22
Last Quarter
Mar 1
New
Mar 8
First Quarter
Mar 16
Full

Hourly Weather History & Observations

Time (MST) Temp. Windchill Dew Point Humidity Pressure Visibility Wind Dir Wind Speed Gust Speed Precip Events Conditions
12:15 AM 44.6 °F 39.2 °F 6.8 °F 21% 29.95 in 10.0 mi WSW 10.4 mph - N/A   Clear
12:35 AM 39.2 °F 33.6 °F 10.4 °F 31% 29.95 in 10.0 mi West 8.1 mph - N/A   Clear
12:55 AM 44.6 °F 38.8 °F 10.4 °F 25% 29.95 in 10.0 mi West 11.5 mph - N/A   Clear
1:15 AM 41.0 °F 34.7 °F 8.6 °F 26% 29.96 in 10.0 mi NW 10.4 mph - N/A   Clear
1:35 AM 37.4 °F 30.8 °F 8.6 °F 30% 29.98 in 10.0 mi West 9.2 mph - N/A   Clear
1:55 AM 39.2 °F 31.2 °F 8.6 °F 28% 29.98 in 10.0 mi West 13.8 mph - N/A   Clear
2:15 AM 48.2 °F - 8.6 °F 20% 29.98 in 10.0 mi WSW 21.9 mph 25.3 mph N/A   Clear
2:35 AM 44.6 °F 39.2 °F 8.6 °F 23% 29.98 in 10.0 mi West 10.4 mph - N/A   Clear
2:55 AM 48.2 °F - 8.6 °F 20% 29.98 in 10.0 mi West 19.6 mph 26.5 mph N/A   Clear
3:15 AM 39.2 °F 31.6 °F 12.2 °F 33% 29.98 in 10.0 mi NE 12.7 mph - N/A   Clear
3:35 AM 35.6 °F 29.2 °F 17.6 °F 48% 29.98 in 10.0 mi East 8.1 mph - N/A   Clear
3:55 AM 37.4 °F 29.8 °F 15.8 °F 41% 29.99 in 10.0 mi ENE 11.5 mph - N/A   Clear
4:15 AM 42.8 °F 37.0 °F 12.2 °F 29% 29.99 in 10.0 mi ENE 10.4 mph - N/A   Clear
4:35 AM 46.4 °F 43.5 °F 10.4 °F 23% 30.00 in 10.0 mi WNW 5.8 mph - N/A   Clear
4:55 AM 42.8 °F 41.1 °F 8.6 °F 25% 30.01 in 10.0 mi West 3.5 mph - N/A   Clear
5:15 AM 42.8 °F 40.1 °F 10.4 °F 27% 30.01 in 10.0 mi West 4.6 mph - N/A   Clear
5:35 AM 37.4 °F 32.1 °F 8.6 °F 30% 30.02 in 10.0 mi ENE 6.9 mph - N/A   Clear
5:55 AM 37.4 °F 33.8 °F 15.8 °F 41% 30.04 in 10.0 mi ENE 4.6 mph - N/A   Clear
6:15 AM 33.8 °F 28.6 °F 14.0 °F 44% 30.05 in 10.0 mi ENE 5.8 mph - N/A   Clear
6:35 AM 37.4 °F 32.8 °F 15.8 °F 41% 30.06 in 10.0 mi NE 5.8 mph - N/A   Clear
6:55 AM 35.6 °F 27.5 °F 15.8 °F 44% 30.06 in 10.0 mi NNW 11.5 mph - N/A   Clear
7:15 AM 35.6 °F 30.7 °F 15.8 °F 44% 30.08 in 10.0 mi ESE 5.8 mph - N/A   Clear
7:35 AM 35.6 °F 29.9 °F 15.8 °F 44% 30.09 in 10.0 mi SSE 6.9 mph - N/A   Clear
7:55 AM 37.4 °F 30.8 °F 15.8 °F 41% 30.10 in 10.0 mi ENE 9.2 mph - N/A   Clear
8:15 AM 35.6 °F - 17.6 °F 48% 30.12 in 10.0 mi Calm Calm - N/A   Clear
8:35 AM 35.6 °F 30.7 °F 19.4 °F 52% 30.13 in 10.0 mi SSE 5.8 mph - N/A   Clear
8:55 AM 35.6 °F 31.7 °F 19.4 °F 52% 30.14 in 10.0 mi WNW 4.6 mph - N/A   Clear
9:15 AM 39.2 °F 35.0 °F 19.4 °F 45% 30.14 in 10.0 mi West 5.8 mph - N/A   Clear
9:35 AM 42.8 °F 39.3 °F 19.4 °F 39% 30.15 in 10.0 mi South 5.8 mph - N/A   Clear
9:55 AM 42.8 °F 37.5 °F 19.4 °F 39% 30.15 in 10.0 mi SSE 9.2 mph - N/A   Clear
10:15 AM 44.6 °F 42.2 °F 19.4 °F 37% 30.16 in 10.0 mi SSE 4.6 mph - N/A   Clear
10:35 AM 44.6 °F 42.2 °F 19.4 °F 37% 30.16 in 10.0 mi SE 4.6 mph - N/A   Clear
10:55 AM 44.6 °F 40.7 °F 19.4 °F 37% 30.16 in 10.0 mi SSE 6.9 mph - N/A   Clear
11:15 AM 44.6 °F 41.4 °F 19.4 °F 37% 30.17 in 10.0 mi SE 5.8 mph - N/A   Clear
11:35 AM 44.6 °F 42.2 °F 23.0 °F 43% 30.17 in 10.0 mi SSE 4.6 mph - N/A   Clear
11:55 AM 46.4 °F - 24.8 °F 43% 30.16 in 10.0 mi Calm Calm - N/A   Clear
12:15 PM 46.4 °F 45.2 °F 24.8 °F 43% 30.16 in 10.0 mi East 3.5 mph - N/A   Clear
12:35 PM 48.2 °F - 21.2 °F 34% 30.14 in 10.0 mi East 5.8 mph - N/A   Clear
12:55 PM 48.2 °F - 21.2 °F 34% 30.13 in 10.0 mi ESE 3.5 mph - N/A   Clear
1:15 PM 48.2 °F - 21.2 °F 34% 30.12 in 10.0 mi South 4.6 mph - N/A   Clear
1:35 PM 46.4 °F - 19.4 °F 34% 30.12 in 10.0 mi Calm Calm - N/A   Clear
1:55 PM 46.4 °F 44.3 °F 19.4 °F 34% 30.11 in 10.0 mi SW 4.6 mph - N/A   Clear
2:15 PM 46.4 °F - 19.4 °F 34% 30.10 in 10.0 mi Calm Calm - N/A   Clear
2:35 PM 48.2 °F - 19.4 °F 32% 30.09 in 10.0 mi Calm Calm - N/A   Clear
2:55 PM 48.2 °F - 19.4 °F 32% 30.09 in 10.0 mi ESE 5.8 mph - N/A   Clear
3:15 PM 48.2 °F - 21.2 °F 34% 30.08 in 10.0 mi ESE 8.1 mph - N/A   Clear
3:35 PM 48.2 °F - 21.2 °F 34% 30.08 in 10.0 mi ESE 6.9 mph - N/A   Clear
3:55 PM 48.2 °F - 19.4 °F 32% 30.07 in 10.0 mi ESE 5.8 mph - N/A   Clear
4:15 PM 48.2 °F - 19.4 °F 32% 30.07 in 10.0 mi SE 5.8 mph - N/A   Clear
4:35 PM 46.4 °F 43.5 °F 21.2 °F 37% 30.07 in 10.0 mi ESE 5.8 mph - N/A   Clear
4:55 PM 46.4 °F 43.5 °F 21.2 °F 37% 30.07 in 10.0 mi SE 5.8 mph - N/A   Clear
5:15 PM 46.4 °F 43.5 °F 21.2 °F 37% 30.07 in 10.0 mi SE 5.8 mph - N/A   Clear
5:35 PM 46.4 °F 44.3 °F 21.2 °F 37% 30.07 in 10.0 mi SSE 4.6 mph - N/A   Clear
5:55 PM 46.4 °F 44.3 °F 21.2 °F 37% 30.06 in 10.0 mi South 4.6 mph - N/A   Clear
6:15 PM 44.6 °F 41.4 °F 21.2 °F 39% 30.06 in 10.0 mi South 5.8 mph - N/A   Clear
6:35 PM 42.8 °F 39.3 °F 23.0 °F 46% 30.05 in 10.0 mi South 5.8 mph - N/A   Clear
6:55 PM 42.8 °F 40.1 °F 23.0 °F 46% 30.05 in 10.0 mi South 4.6 mph - N/A   Clear
7:15 PM 39.2 °F 35.9 °F 24.8 °F 56% 30.05 in 10.0 mi WSW 4.6 mph - N/A   Clear
7:35 PM 39.2 °F 34.2 °F 23.0 °F 52% 30.04 in 10.0 mi West 6.9 mph - N/A   Clear
7:55 PM 37.4 °F 33.8 °F 21.2 °F 52% 30.04 in 10.0 mi WNW 4.6 mph - N/A   Clear
8:15 PM 37.4 °F 32.8 °F 21.2 °F 52% 30.04 in 10.0 mi West 5.8 mph - N/A   Clear
8:35 PM 37.4 °F 33.8 °F 21.2 °F 52% 30.03 in 10.0 mi West 4.6 mph - N/A   Clear
8:55 PM 35.6 °F 31.7 °F 21.2 °F 56% 30.02 in 10.0 mi ENE 4.6 mph - N/A   Clear
9:15 PM 35.6 °F - 21.2 °F 56% 30.02 in 10.0 mi Calm Calm - N/A   Partly Cloudy
9:35 PM 35.6 °F - 19.4 °F 52% 30.02 in 10.0 mi Calm Calm - N/A   Scattered Clouds
9:55 PM 37.4 °F 33.8 °F 21.2 °F 52% 30.01 in 10.0 mi West 4.6 mph - N/A   Clear
10:15 PM 35.6 °F 31.7 °F 23.0 °F 60% 30.00 in 10.0 mi West 4.6 mph - N/A   Clear
10:35 PM 33.8 °F 28.6 °F 21.2 °F 60% 29.99 in 10.0 mi West 5.8 mph - N/A   Clear
10:55 PM 33.8 °F 30.8 °F 21.2 °F 60% 29.98 in 10.0 mi West 3.5 mph - N/A   Clear
11:15 PM 32.0 °F - 21.2 °F 64% 29.96 in 10.0 mi Calm Calm - N/A   Clear
11:35 PM 32.0 °F 26.4 °F 19.4 °F 60% 29.95 in 10.0 mi NNE 5.8 mph - N/A   Clear
11:55 PM 30.2 °F 24.3 °F 21.2 °F 69% 29.94 in 10.0 mi ENE 5.8 mph - N/A   Clear